| time (UTC) | temp F | wind direction | speed knots | gust knots | rain 1hr in | rain 24hr in | rain mn in | humidity % | barometer mb |
| 20260504120306 | 53 | 251 | 0.0 | 0.9 | 0.00 | 0.00 | 0.00 | 69 | 986.1 |
| 20260504110230 | 49 | 240 | 0.9 | 1.7 | 0.00 | 0.00 | 0.00 | 73 | 985.5 |
| 20260504100154 | 50 | 206 | 1.7 | 1.7 | 0.00 | 0.00 | 0.00 | 71 | 985.1 |
| 20260504090116 | 50 | 283 | 0.9 | 0.9 | 0.00 | 0.00 | 0.00 | 70 | 985.6 |
| 20260504081547 | 50 | 288 | 0.9 | 1.7 | 0.00 | 0.00 | 0.00 | 69 | 986.1 |
| 20260504081042 | 50 | 236 | 2.6 | 2.6 | 0.00 | 0.00 | 0.00 | 69 | 986.1 |
| 20260504080539 | 50 | 300 | 0.9 | 1.7 | 0.00 | 0.00 | 0.00 | 69 | 986.3 |
| 20260504050352 | 51 | 254 | 2.6 | 2.6 | 0.00 | 0.00 | 0.00 | 65 | 988.4 |
| 20260504045849 | 51 | 275 | 0.9 | 0.9 | 0.00 | 0.00 | 0.00 | 66 | 988.5 |
| 20260504045350 | 51 | 308 | 0.9 | 0.9 | 0.00 | 0.00 | 0.00 | 66 | 988.6 |
| 20260504044847 | 51 | 314 | 0.0 | 0.0 | 0.00 | 0.00 | 0.00 | 65 | 988.6 |
| 20260504044344 | 51 | 21 | 0.9 | 0.9 | 0.00 | 0.00 | 0.00 | 65 | 988.6 |
| 20260504043842 | 51 | 261 | 0.9 | 0.9 | 0.00 | 0.00 | 0.00 | 66 | 988.5 |
| 20260504043338 | 52 | 349 | 0.0 | 0.9 | 0.00 | 0.00 | 0.00 | 66 | 988.5 |
| 20260504042836 | 52 | 334 | 0.9 | 0.9 | 0.00 | 0.00 | 0.00 | 65 | 988.9 |
| 20260504042332 | 52 | 235 | 1.7 | 2.6 | 0.00 | 0.00 | 0.00 | 65 | 988.6 |
| 20260504041828 | 52 | 331 | 1.7 | 2.6 | 0.00 | 0.00 | 0.00 | 66 | 989.0 |
| 20260504041324 | 52 | 288 | 1.7 | 1.7 | 0.00 | 0.00 | 0.00 | 65 | 988.8 |
| 20260504040821 | 51 | 356 | 0.9 | 0.9 | 0.00 | 0.00 | 0.00 | 66 | 988.9 |
| 20260504040319 | 51 | 289 | 1.7 | 1.7 | 0.00 | 0.00 | 0.00 | 66 | 988.9 |
| 20260504035814 | 51 | 294 | 0.9 | 0.9 | 0.00 | 0.00 | 0.00 | 66 | 988.9 |
| 20260504035312 | 51 | 45 | 0.9 | 0.9 | 0.00 | 0.00 | 0.00 | 67 | 989.1 |
| 20260504034809 | 51 | 203 | 0.9 | 1.7 | 0.00 | 0.00 | 0.00 | 67 | 988.9 |
| 20260504034306 | 51 | 11 | 0.0 | 0.9 | 0.00 | 0.00 | 0.00 | 68 | 989.1 |
| 20260504033804 | 51 | 270 | 1.7 | 2.6 | 0.00 | 0.00 | 0.00 | 68 | 989.1 |
| 20260504033301 | 51 | 321 | 2.6 | 2.6 | 0.00 | 0.00 | 0.00 | 68 | 989.1 |
| 20260504032758 | 51 | 243 | 0.9 | 2.6 | 0.00 | 0.00 | 0.00 | 68 | 989.2 |
| 20260504032255 | 51 | 266 | 0.9 | 0.9 | 0.00 | 0.00 | 0.00 | 69 | 989.3 |
| 20260504031751 | 51 | 251 | 0.9 | 1.7 | 0.00 | 0.00 | 0.00 | 70 | 989.2 |
| 20260504031249 | 50 | 273 | 0.0 | 1.7 | 0.00 | 0.00 | 0.00 | 71 | 989.3 |
| 20260504030744 | 50 | 184 | 0.0 | 0.0 | 0.00 | 0.00 | 0.00 | 71 | 989.5 |
| 20260504030242 | 50 | 239 | 0.9 | 0.9 | 0.00 | 0.00 | 0.00 | 71 | 989.8 |
| 20260504025738 | 50 | 161 | 0.0 | 0.9 | 0.00 | 0.00 | 0.00 | 71 | 989.6 |
| 20260504025235 | 50 | 71 | 0.0 | 0.0 | 0.00 | 0.00 | 0.00 | 71 | 989.7 |
| 20260504024732 | 50 | 165 | 0.0 | 0.0 | 0.00 | 0.00 | 0.00 | 70 | 989.6 |
| 20260504024229 | 51 | 15 | 0.0 | 0.0 | 0.00 | 0.00 | 0.00 | 70 | 989.8 |
| 20260504023726 | 51 | 266 | 0.9 | 0.9 | 0.00 | 0.00 | 0.00 | 69 | 989.8 |
| 20260504023221 | 51 | 250 | 0.9 | 0.9 | 0.00 | 0.00 | 0.00 | 69 | 989.7 |
| 20260504022718 | 51 | 62 | 0.0 | 0.0 | 0.00 | 0.00 | 0.00 | 68 | 989.9 |
| 20260504022214 | 51 | 249 | 0.9 | 0.9 | 0.00 | 0.00 | 0.00 | 68 | 990.0 |
| 20260504021712 | 51 | 267 | 0.9 | 0.9 | 0.00 | 0.00 | 0.00 | 68 | 989.8 |
| 20260504021209 | 51 | 271 | 0.9 | 1.7 | 0.00 | 0.00 | 0.00 | 67 | 989.9 |
| 20260504020706 | 52 | 336 | 0.9 | 1.7 | 0.00 | 0.00 | 0.00 | 67 | 989.8 |
| 20260504020201 | 52 | 252 | 0.9 | 1.7 | 0.00 | 0.00 | 0.00 | 66 | 989.9 |
| 20260504015658 | 52 | 22 | 0.0 | 0.0 | 0.00 | 0.00 | 0.00 | 66 | 989.8 |
| 20260504015154 | 52 | 155 | 0.9 | 0.9 | 0.00 | 0.00 | 0.00 | 66 | 990.1 |
| 20260504014650 | 52 | 9 | 0.0 | 0.9 | 0.00 | 0.00 | 0.00 | 66 | 989.9 |
| 20260504014148 | 52 | 297 | 1.7 | 1.7 | 0.00 | 0.00 | 0.00 | 65 | 989.9 |
| 20260504013645 | 52 | 26 | 0.0 | 0.0 | 0.00 | 0.00 | 0.00 | 66 | 990.0 |
| 20260504013142 | 52 | 247 | 0.9 | 0.9 | 0.00 | 0.00 | 0.00 | 66 | 989.9 |
| 20260504012639 | 52 | 300 | 0.9 | 1.7 | 0.00 | 0.00 | 0.00 | 65 | 990.0 |
| 20260504012137 | 53 | 259 | 0.0 | 0.9 | 0.00 | 0.00 | 0.00 | 63 | 990.1 |
| 20260504011634 | 53 | 25 | 0.0 | 0.9 | 0.00 | 0.00 | 0.00 | 64 | 989.9 |
| 20260504011130 | 53 | 238 | 2.6 | 2.6 | 0.00 | 0.00 | 0.00 | 62 | 990.0 |
| 20260504010626 | 53 | 281 | 1.7 | 1.7 | 0.00 | 0.00 | 0.00 | 62 | 989.8 |
| 20260504010122 | 53 | 248 | 2.6 | 3.5 | 0.00 | 0.00 | 0.00 | 62 | 990.0 |
| 20260504005619 | 53 | 229 | 2.6 | 2.6 | 0.00 | 0.00 | 0.00 | 61 | 990.0 |
| 20260504005116 | 53 | 247 | 0.9 | 1.7 | 0.00 | 0.00 | 0.00 | 62 | 990.2 |
| 20260504004614 | 53 | 235 | 1.7 | 1.7 | 0.00 | 0.00 | 0.00 | 62 | 990.1 |
| 20260504004111 | 53 | 242 | 2.6 | 2.6 | 0.00 | 0.00 | 0.00 | 62 | 990.1 |
| 20260504003607 | 53 | 240 | 2.6 | 2.6 | 0.00 | 0.00 | 0.00 | 62 | 990.2 |
| 20260504003104 | 53 | 261 | 1.7 | 1.7 | 0.00 | 0.00 | 0.00 | 61 | 990.1 |
| 20260504002601 | 53 | 249 | 1.7 | 2.6 | 0.00 | 0.00 | 0.00 | 60 | 990.2 |
| 20260504002058 | 54 | 265 | 3.5 | 5.2 | 0.00 | 0.00 | 0.00 | 59 | 990.6 |
| 20260504001556 | 54 | 232 | 2.6 | 5.2 | 0.00 | 0.00 | 0.00 | 61 | 990.6 |
| 20260504001051 | 54 | 245 | 3.5 | 5.2 | 0.00 | 0.00 | 0.00 | 61 | 990.4 |
| 20260504000549 | 54 | 260 | 3.5 | 5.2 | 0.00 | 0.00 | 0.00 | 61 | 990.5 |
| 20260504000046 | 54 | 262 | 6.1 | 7.8 | 0.00 | 0.00 | 0.00 | 60 | 990.3 |
| 20260503235545 | 54 | 288 | 3.5 | 3.5 | 0.00 | 0.00 | 0.00 | 61 | 990.1 |
| 20260503235041 | 55 | 252 | 3.5 | 3.5 | 0.00 | 0.00 | 0.00 | 61 | 990.3 |
| 20260503234538 | 55 | 249 | 4.3 | 5.2 | 0.00 | 0.00 | 0.00 | 60 | 990.4 |
| 20260503234037 | 55 | 266 | 5.2 | 7.0 | 0.00 | 0.00 | 0.00 | 59 | 990.2 |
| 20260503233533 | 57 | 233 | 4.3 | 6.1 | 0.00 | 0.00 | 0.00 | 58 | 990.1 |
| 20260503233029 | 57 | 264 | 4.3 | 6.1 | 0.00 | 0.00 | 0.00 | 57 | 990.2 |
| 20260503232526 | 57 | 240 | 7.8 | 8.7 | 0.00 | 0.00 | 0.00 | 56 | 990.1 |
| 20260503232024 | 58 | 273 | 5.2 | 6.1 | 0.00 | 0.00 | 0.00 | 54 | 989.9 |
| 20260503231521 | 58 | 239 | 5.2 | 7.0 | 0.00 | 0.00 | 0.00 | 52 | 989.9 |
| 20260503231018 | 59 | 215 | 5.2 | 7.8 | 0.00 | 0.00 | 0.00 | 51 | 989.9 |
| 20260503230514 | 59 | 262 | 6.1 | 7.0 | 0.00 | 0.00 | 0.00 | 49 | 989.7 |
| 20260503230012 | 61 | 238 | 6.1 | 8.7 | 0.00 | 0.00 | 0.00 | 42 | 989.8 |
| 20260503225509 | 61 | 291 | 2.6 | 3.5 | 0.00 | 0.00 | 0.00 | 38 | 989.7 |
| 20260503225004 | 62 | 244 | 3.5 | 5.2 | 0.00 | 0.00 | 0.00 | 36 | 989.7 |
| 20260503224501 | 62 | 256 | 3.5 | 3.5 | 0.00 | 0.00 | 0.00 | 35 | 989.9 |
| 20260503223959 | 62 | 334 | 3.5 | 5.2 | 0.00 | 0.00 | 0.00 | 36 | 989.8 |
| 20260503223457 | 62 | 228 | 4.3 | 6.1 | 0.00 | 0.00 | 0.00 | 37 | 989.8 |
| 20260503222952 | 62 | 226 | 3.5 | 5.2 | 0.00 | 0.00 | 0.00 | 37 | 989.9 |
| 20260503222451 | 62 | 225 | 3.5 | 3.5 | 0.00 | 0.00 | 0.00 | 35 | 989.7 |
| 20260503221949 | 62 | 247 | 4.3 | 5.2 | 0.00 | 0.00 | 0.00 | 36 | 989.8 |
| 20260503221447 | 62 | 251 | 2.6 | 2.6 | 0.00 | 0.00 | 0.00 | 37 | 989.9 |
| 20260503220943 | 62 | 247 | 4.3 | 5.2 | 0.00 | 0.00 | 0.00 | 36 | 989.8 |
| 20260503220439 | 62 | 296 | 3.5 | 6.1 | 0.00 | 0.00 | 0.00 | 36 | 989.9 |
| 20260503215937 | 63 | 246 | 5.2 | 7.8 | 0.00 | 0.00 | 0.00 | 35 | 990.0 |
| 20260503215433 | 63 | 239 | 5.2 | 6.1 | 0.00 | 0.00 | 0.00 | 35 | 989.8 |
| 20260503214931 | 63 | 255 | 5.2 | 6.1 | 0.00 | 0.00 | 0.00 | 34 | 989.9 |
| 20260503214429 | 63 | 225 | 4.3 | 6.1 | 0.00 | 0.00 | 0.00 | 34 | 990.1 |
| 20260503213926 | 63 | 304 | 7.0 | 8.7 | 0.00 | 0.00 | 0.00 | 35 | 990.0 |
| 20260503213424 | 64 | 256 | 5.2 | 6.1 | 0.00 | 0.00 | 0.00 | 33 | 990.1 |
| 20260503212920 | 64 | 246 | 7.0 | 11.3 | 0.00 | 0.00 | 0.00 | 32 | 990.1 |
| 20260503212418 | 64 | 269 | 3.5 | 5.2 | 0.00 | 0.00 | 0.00 | 35 | 990.0 |
| 20260503211915 | 63 | 321 | 2.6 | 5.2 | 0.00 | 0.00 | 0.00 | 35 | 990.1 |
| 20260503211412 | 63 | 249 | 4.3 | 6.1 | 0.00 | 0.00 | 0.00 | 34 | 990.1 |
| 20260503210907 | 64 | 233 | 5.2 | 7.0 | 0.00 | 0.00 | 0.00 | 34 | 990.0 |
| 20260503210404 | 64 | 303 | 3.5 | 6.1 | 0.00 | 0.00 | 0.00 | 33 | 990.0 |
| 20260503205859 | 64 | 208 | 7.8 | 8.7 | 0.00 | 0.00 | 0.00 | 32 | 990.0 |
| 20260503205356 | 64 | 248 | 3.5 | 6.1 | 0.00 | 0.00 | 0.00 | 32 | 990.3 |
| 20260503204852 | 64 | 237 | 5.2 | 7.8 | 0.00 | 0.00 | 0.00 | 32 | 990.2 |
| 20260503204349 | 64 | 240 | 5.2 | 7.0 | 0.00 | 0.00 | 0.00 | 32 | 990.2 |
| 20260503203847 | 63 | 293 | 3.5 | 6.1 | 0.00 | 0.00 | 0.00 | 33 | 990.3 |
| 20260503203344 | 63 | 228 | 7.0 | 8.7 | 0.00 | 0.00 | 0.00 | 32 | 990.4 |
| 20260503202841 | 64 | 245 | 8.7 | 11.3 | 0.00 | 0.00 | 0.00 | 32 | 990.3 |
| 20260503202339 | 64 | 245 | 5.2 | 7.0 | 0.00 | 0.00 | 0.00 | 33 | 990.3 |
| 20260503201837 | 64 | 251 | 3.5 | 5.2 | 0.00 | 0.00 | 0.00 | 33 | 990.6 |
| 20260503201334 | 64 | 259 | 4.3 | 6.1 | 0.00 | 0.00 | 0.00 | 32 | 990.5 |
| 20260503200832 | 64 | 236 | 7.0 | 7.8 | 0.00 | 0.00 | 0.00 | 32 | 990.6 |
| 20260503200327 | 64 | 242 | 7.0 | 7.0 | 0.00 | 0.00 | 0.00 | 32 | 990.6 |
| 20260503195825 | 64 | 236 | 5.2 | 7.8 | 0.00 | 0.00 | 0.00 | 33 | 990.5 |
| 20260503195321 | 64 | 259 | 6.1 | 8.7 | 0.00 | 0.00 | 0.00 | 33 | 990.6 |
| 20260503194819 | 64 | 259 | 5.2 | 7.0 | 0.00 | 0.00 | 0.00 | 32 | 990.7 |
| 20260503194314 | 65 | 232 | 5.2 | 6.1 | 0.00 | 0.00 | 0.00 | 33 | 990.9 |
| 20260503193810 | 64 | 252 | 7.0 | 8.7 | 0.00 | 0.00 | 0.00 | 33 | 990.7 |
| 20260503193307 | 64 | 249 | 4.3 | 6.1 | 0.00 | 0.00 | 0.00 | 33 | 990.8 |
| 20260503192803 | 64 | 277 | 7.0 | 9.6 | 0.00 | 0.00 | 0.00 | 33 | 991.2 |
| 20260503192258 | 64 | 243 | 6.1 | 8.7 | 0.00 | 0.00 | 0.00 | 34 | 990.7 |
| 20260503191755 | 64 | 233 | 3.5 | 6.1 | 0.00 | 0.00 | 0.00 | 33 | 991.3 |
| 20260503191252 | 64 | 232 | 7.0 | 8.7 | 0.00 | 0.00 | 0.00 | 32 | 991.2 |
| 20260503190748 | 64 | 319 | 3.5 | 5.2 | 0.00 | 0.00 | 0.00 | 35 | 991.4 |
| 20260503190245 | 63 | 281 | 3.5 | 3.5 | 0.00 | 0.00 | 0.00 | 33 | 991.2 |
| 20260503185743 | 63 | 249 | 7.0 | 8.7 | 0.00 | 0.00 | 0.00 | 33 | 991.5 |
| 20260503185238 | 64 | 253 | 5.2 | 7.0 | 0.00 | 0.00 | 0.00 | 32 | 991.4 |
| 20260503184733 | 64 | 227 | 5.2 | 8.7 | 0.00 | 0.00 | 0.00 | 34 | 991.6 |
| 20260503184230 | 64 | 243 | 5.2 | 6.1 | 0.00 | 0.00 | 0.00 | 33 | 991.6 |
| 20260503183726 | 63 | 252 | 6.1 | 7.8 | 0.00 | 0.00 | 0.00 | 34 | 991.6 |
| 20260503183223 | 63 | 235 | 7.0 | 7.8 | 0.00 | 0.00 | 0.00 | 35 | 991.9 |
| 20260503182721 | 63 | 248 | 5.2 | 7.8 | 0.00 | 0.00 | 0.00 | 36 | 991.7 |
| 20260503182220 | 64 | 254 | 4.3 | 6.1 | 0.00 | 0.00 | 0.00 | 34 | 991.9 |
| 20260503181716 | 64 | 235 | 5.2 | 7.0 | 0.00 | 0.00 | 0.00 | 33 | 992.0 |
| 20260503181213 | 64 | 250 | 3.5 | 5.2 | 0.00 | 0.00 | 0.00 | 35 | 992.0 |
| 20260503180709 | 64 | 257 | 7.0 | 7.8 | 0.00 | 0.00 | 0.00 | 33 | 992.1 |
| 20260503180208 | 64 | 258 | 3.5 | 5.2 | 0.00 | 0.00 | 0.00 | 32 | 992.2 |
| 20260503175704 | 63 | 271 | 3.5 | 5.2 | 0.00 | 0.00 | 0.00 | 36 | 992.3 |
| 20260503175202 | 63 | 180 | 5.2 | 7.0 | 0.00 | 0.00 | 0.00 | 33 | 992.3 |
| 20260503174657 | 63 | 267 | 7.0 | 8.7 | 0.00 | 0.00 | 0.00 | 33 | 992.3 |
| 20260503174155 | 63 | 250 | 5.2 | 7.8 | 0.00 | 0.00 | 0.00 | 35 | 992.4 |
| 20260503173650 | 63 | 232 | 5.2 | 6.1 | 0.00 | 0.00 | 0.00 | 35 | 992.3 |
| 20260503173147 | 62 | 249 | 4.3 | 7.0 | 0.00 | 0.00 | 0.00 | 37 | 992.4 |
| 20260503172644 | 63 | 238 | 5.2 | 8.7 | 0.00 | 0.00 | 0.00 | 35 | 992.5 |
| 20260503172141 | 62 | 269 | 4.3 | 5.2 | 0.00 | 0.00 | 0.00 | 37 | 992.7 |
| 20260503171637 | 63 | 248 | 7.8 | 11.3 | 0.00 | 0.00 | 0.00 | 35 | 992.6 |
| 20260503171135 | 63 | 259 | 4.3 | 6.1 | 0.00 | 0.00 | 0.00 | 38 | 992.9 |
| 20260503170632 | 63 | 242 | 4.3 | 6.1 | 0.00 | 0.00 | 0.00 | 36 | 992.9 |
| 20260503170128 | 63 | 246 | 3.5 | 3.5 | 0.00 | 0.00 | 0.00 | 41 | 993.1 |
| 20260503150520 | 56 | 253 | 3.5 | 3.5 | 0.00 | 0.00 | 0.00 | 47 | 994.4 |
| 20260503131413 | 50 | 243 | 3.5 | 5.2 | 0.00 | 0.00 | 0.00 | 52 | 994.2 |
| 20260503130910 | 50 | 235 | 2.6 | 6.1 | 0.00 | 0.00 | 0.00 | 53 | 994.5 |
| 20260503130408 | 49 | 237 | 3.5 | 3.5 | 0.00 | 0.00 | 0.00 | 53 | 994.5 |